パンスターズ彗星

386P/PanSTARRS (2012)

English version
Home page
Updated on November 9, 2019

---------------------------------------------------------------------

・ プロフィール

符号 386P/2011 U1
発見日 2011年10月23日
発見光度 21.0等
発見者 Pan-STARRS 1 telescope (Haleakala)

・ 写真集

・ 軌道要素

Epoch 2012 June 2.0 TT = JDT 2456080.5
T 2012 June 20.68059 TT                                 MPC
q   2.3561405            (2000.0)            P               Q
n   0.12110853     Peri.  353.15110     -0.62079780     -0.76161370
a   4.0459411      Node   135.00685     +0.73117526     -0.64802148
e   0.4176533      Incl.   15.24328     +0.28283003     +0.00356811
P   8.14
From 52 observations 2004 Feb. 14-2011 Dec. 29, mean residual 0".3.

・ 光度変化

        m1 = 14.0 + 5 logΔ + 10.0 log r

---------------------------------------------------------------------

軌道要素はM.P.E.C. 2011-Y66に掲載されたものです。
光度グラフはComet for Windowsで作成したものです。

---------------------------------------------------------------------

Copyright(C) Seiichi Yoshida (comet@aerith.net). All rights reserved.